Flag for Canada Weather past 2 weeks in Thunder Bay, Ontario, Canada

18 °F

Partly cloudy.

Feels Like: 7 °F
Forecast: 11 / 23 °F
Wind: 8 mph from North

Location: Thunder Bay

Current Time: Nov 26, 2015 at 8:22:16 PM

Latest Report: Nov 26, 2015 at 8:00 PM

Visibility: 15 mi

Pressure: 30.48 "Hg

Humidity: 73%

Dew point: 10 °F

Location of Thunder BayLocation

Historic Weather in Thunder Bay — Graph


Thunder Bay temperature yesterday

Maximum temperature yesterday: 41 °F (at 12:00 PM)
Minimum temperature yesterday: 36 °F (at 12:00 AM)
Average temperature yesterday: 38 °F

Past Weeks' High & Low Weather Summary

High57 °F (Nov 18, 4:00 PM)100% (Nov 12, 5:00 PM)30.46 "Hg (Nov 12, 5:00 PM)
Low14 °F (Nov 21, 8:00 AM)43% (Nov 21, 2:00 PM)29.03 "Hg (Nov 18, 9:00 PM)
Average34 °F83%29.89 "Hg
* Reported Nov 11 7:00 PM — Nov 26 7:00 PM, Thunder Bay, Weather by CustomWeather, © 2015

Note: Actual official high and low records may vary slightly from our data, if they occured in-between our weather recording intervals... More about our weather records


Thunder Bay weather history for previous 24 hours

Time TempWeatherWind HumidityBarometerVisibility
7:00 PM
Thu, Nov 26
19 °FPassing clouds.8 mph68%30.46 "Hg15 mi
6:00 PM19 °FPassing clouds.6 mph73%30.44 "Hg15 mi
5:00 PM21 °FPartly sunny.10 mph68%30.42 "Hg20 mi
4:00 PM23 °FMostly cloudy.8 mph68%30.40 "Hg20 mi
3:00 PM23 °FMore clouds than sun.9 mph68%30.37 "Hg20 mi
2:00 PM23 °FOvercast.8 mph74%30.36 "Hg20 mi
1:00 PM23 °FLight snow. More clouds than sun.9 mph80%30.38 "Hg6 mi
12:00 PM23 °FLight snow. More clouds than sun.9 mph80%30.39 "Hg2 mi
11:00 AM23 °FLight snow. More clouds than sun.8 mph86%30.37 "Hg1 mi
10:00 AM25 °FLight snow. More clouds than sun.5 mph86%30.34 "Hg2 mi
9:00 AM27 °FLight snow. More clouds than sun.7 mph86%30.32 "Hg1 mi
8:00 AM28 °FLight snow. Overcast.12 mph86%30.29 "Hg4 mi
7:00 AM30 °FLight snow. Overcast.9 mph80%30.26 "Hg15 mi
6:00 AM32 °FOvercast.8 mph80%30.22 "Hg15 mi
5:00 AM34 °FOvercast.8 mph75%30.21 "Hg15 mi
4:00 AM34 °FOvercast.10 mph81%30.17 "Hg15 mi
3:00 AM36 °FOvercast.3 mph81%30.14 "Hg15 mi
2:00 AM36 °FOvercast.6 mph81%30.11 "Hg15 mi
1:00 AM37 °FOvercast.6 mph75%30.09 "Hg15 mi
12:00 AM37 °FOvercast.8 mph81%30.06 "Hg15 mi
11:00 PM
Wed, Nov 25
37 °FMostly cloudy.7 mph81%30.03 "Hg15 mi
10:00 PM37 °FMostly cloudy.12 mph87%30.01 "Hg15 mi
9:00 PM37 °FOvercast.8 mph87%29.98 "Hg15 mi
8:00 PM39 °FOvercast.7 mph87%29.96 "Hg10 mi
Weather by CustomWeather, © 2015

See weather overviewHow to use our weather pages